COSMOS 1823 DEB, 18727

Orbit data source: Space-Track

COSMOS 1823 DEB, 18727 is space debris in LEO originally from a launch on Fri, 20 Feb 1987 UTC launched from the Plesetsk Missile And Space Complex (PKMTR). Debris objects in space refer to the collection of defunct objects orbiting the Earth. Examples of debris include non-operational satellites, rocket bodies, and fragments generated from explosions, collisions, or faulty payload assembly.

Loading next visibility...
Identifier
18727, 1987-020E
Orbit
LEO
Country
Flag of CISCIS
Related business
Manufacturer
Unknown
Mission
Spacecraft
Bus & Motor
Unknown
Mass
Unknown
Launch date (UTC)
1987-02-20 (39 years ago)
Launch vehicle
Unknown
Launch site
Plesetsk Missile And Space Complex (PKMTR)
Object type
Payload
Rocket body
Debris
Shape & HBR
Unknown shape, 0.2 m
Radar Cross Section
Medium (>0.1 m² and <1 m²)

Expand to show TLE details & history
Last TLE update: 2 days ago

TLE from 2 days ago
0 COSMOS 1823 DEB
1 18727U 87020E   26171.24369278  .00000041  00000-0  32542-3 0  9994
2 18727  73.3601   8.4563 0087240 287.4793 191.5593 12.65198240777219
Epoch: 2026-06-20T05:50Z
TLE epoch observation values (Epoch: 2026-06-20T05:50:55.056Z)
Latitude
57.16343°
Longitude
164.82438°
Altitude
1,477.253 km
Speed
7.099 km/s
True Right ascension
10h 44m 03s
True Declination
57° 01' 15"
Sunlit
Object was in daylight at epoch
Visualization orbit readout
Latitude
Unknown
Longitude
Unknown
Altitude
Unknown
Speed
Unknown
Apparent Right ascension
Unknown
Apparent Declination
Unknown
Sunlit
N/A
Visualization observer readout
Local Sidereal Time
01:45:38
Azimuth
Unknown
Elevation
Unknown
Doppler factor
Unknown
Orbital elements
Apogee altitude
1,467.284 km
Perigee altitude
1,331.581 km
Semi-major axis
7,777.57 km
Eccentricity
0.00872
Inclination
73.3601°
RAAN
8.4563°
Arg. of periapsis
287.4793°
True anomaly
191.3611°
Mean anomaly
191.5593°
Eccentric anomaly
191.45999°
Mean motion
3.1643 °/min
Orbital period
113.77 mins
BSTAR
0.00032542
Loading maneuver chart data...
Computing Atmospheric mass density...

Documentation

Showing up to 5 results
|